User: anonymous   Login
Location: Treviso
(45.6669°N, 12.2430°E)
Time: 22:09:07
(UTC+02:00)
Language:

ITAMSAT 1 - Orbit

View from above orbital plane
View from above orbital plane
View from above satellite
View from above satellite

Ground track
Ground track

The orbit data is extracted from the following two-line orbital elements,

1 22826U 93061D   19286.87803866 -.00000006 +00000-0 +15485-4 0  9995
2 22826 098.9070 278.2187 0009169 013.2210 346.9210 14.30402506358651
Epoch (UTC): 13 October 2019 21:04:22
Eccentricity: 0.0009169
inclination: 98.9070°
perigee height: 784 km
apogee height: 797 km
right ascension of ascending node: 278.2187°
argument of perigee: 13.2210°
revolutions per day: 14.30402506
mean anomaly at epoch: 346.9210°
orbit number at epoch: 35865

The dashed part of the orbit path shows where the satellite is in the earth's shadow,  

DLR